Vertical_Velocity
1 1 1 -1 -2 -4 -4 -6 -6 -6 -6 -5 -4 -2 2 2 1 1 1 -0 -1 -0 2 1 -0 -3 -6 -9 -9 -8 -8 -5 1 7 9 8 8 8 9 12 10 6 2 -0 1 3 1 -2 -2 -2 -0 -6 -10 -7 11 16 19 20 20 16 4 -8 -11 -10 -7 -3 -0 6 11 14 15 12 6 1 -2 -1 -0 0 1 -0 -1 -2 -2 -1 -0 -0
0 -0 -0 -0 -1 -3 -4 -6 -6 -5 -4 -2 -1 0 2 2 2 2 1 -1 -1 0 1 1 1 0 -4 -8 -8 -8 -8 -6 -1 4 7 8 9 10 10 13 12 8 2 1 3 5 3 0 -1 -1 -0 -6 -13 -10 12 19 21 20 21 20 12 1 -7 -4 1 4 -0 1 5 6 -1 -0 2 4 3 5 5 4 1 -1 -2 -2 -2 -1 -1 -1
-0 -1 1 0 -1 -3 -4 -5 -4 -2 -1 0 1 1 1 1 1 1 0 -1 -0 1 1 1 2 2 1 -4 -7 -7 -8 -8 -4 0 4 8 10 11 10 14 13 9 2 3 3 4 6 2 -0 -1 2 -3 -11 -11 7 17 19 19 20 23 19 12 4 4 7 10 9 9 11 10 2 -0 -2 -4 -3 5 9 8 3 -0 -2 -2 -2 -1 -1 -2
-0 -0 1 -0 -2 -3 -4 -3 -2 -1 -1 -0 0 1 0 0 -0 -1 -1 -1 -0 0 1 2 3 3 4 0 -3 -6 -10 -9 -7 -3 1 7 10 10 8 12 11 8 3 4 3 3 7 4 1 0 3 1 -7 -10 3 14 17 17 17 21 20 17 12 10 10 10 9 13 16 16 14 8 3 1 0 8 10 9 4 1 -1 -1 -1 -1 -1 -2
1 0 0 -1 -2 -3 -2 -2 -2 -2 -2 -1 -0 -0 -0 0 -0 -2 -3 -4 -3 -2 0 3 4 5 7 1 -3 -7 -10 -11 -10 -7 -2 4 8 9 8 12 10 7 5 5 4 4 7 7 5 4 5 2 -5 -8 3 14 15 12 11 15 16 16 15 13 11 8 1 4 8 12 17 15 15 13 9 9 8 5 3 1 0 -0 -1 -1 -2 -2
1 0 -0 -1 -1 -1 -2 -2 -2 -1 -1 -0 0 1 2 1 -0 -3 -6 -8 -8 -6 -2 1 5 7 8 2 -3 -6 -8 -10 -11 -10 -5 0 5 9 11 11 9 7 7 6 5 4 7 9 10 9 5 1 -4 -5 2 13 14 10 5 7 9 11 12 12 10 5 -2 -2 0 4 11 14 15 13 10 8 5 2 -1 -1 -0 0 -0 -2 -3 -3
0 0 -0 -0 -0 -1 -2 -1 -0 0 0 1 1 2 2 1 -1 -4 -6 -8 -8 -7 -4 0 4 6 5 2 1 0 -2 -8 -11 -11 -6 -1 5 10 11 8 8 8 8 8 5 3 4 6 9 9 3 -0 -2 -2 0 10 13 10 5 2 3 5 7 8 6 3 -1 -0 1 2 5 8 6 3 -0 -2 -3 -3 -5 -4 -3 -2 -1 -2 -3 -4
-0 1 1 1 -0 -1 -0 0 1 1 1 2 1 1 0 -1 -2 -2 -2 -4 -6 -8 -8 -3 2 5 3 1 3 5 2 -5 -9 -10 -6 -1 4 9 11 9 8 9 9 8 6 4 2 2 5 7 4 -0 -2 -2 0 8 10 9 3 -0 -0 2 4 3 3 3 1 2 2 3 3 6 6 4 -1 -5 -7 -7 -6 -5 -4 -4 -2 -2 -3 -3
-0 0 1 1 0 1 2 2 2 1 1 1 1 1 1 1 1 1 -0 -4 -8 -10 -11 -7 -1 3 3 2 5 7 7 -0 -5 -6 -5 -2 2 6 10 8 8 9 10 9 8 6 3 0 1 5 8 2 -1 -2 -0 4 6 5 2 -1 1 4 4 2 2 3 3 2 1 1 0 2 5 8 8 4 1 -0 -0 2 4 5 7 4 1 -1
0 0 1 1 1 1 2 2 2 2 2 1 2 3 3 3 2 1 -1 -4 -6 -8 -9 -8 -4 1 4 4 5 8 12 7 2 -1 -3 -3 -0 3 6 6 8 9 10 9 8 6 3 0 1 4 8 4 2 1 -1 3 4 4 4 1 2 3 4 2 2 3 4 2 1 0 -1 -0 1 4 7 6 4 2 1 4 8 14 23 19 11 2
0 1 1 1 2 1 1 2 2 2 1 1 1 1 1 -0 -0 -0 -0 1 -0 -2 -5 -6 -5 -2 2 1 4 8 14 11 6 1 -3 -4 -3 -0 1 5 8 9 8 8 8 7 4 1 1 2 5 6 7 6 0 3 5 7 7 5 3 3 3 1 1 2 1 1 1 0 -0 0 0 0 1 0 -1 -2 -1 1 1 6 20 28 22 11
-0 0 1 2 2 2 1 2 2 1 -1 -1 -1 -1 -2 -2 -1 -0 2 4 4 2 -1 -2 -4 -4 -1 -0 2 6 11 11 7 1 -5 -7 -8 -6 -4 3 7 8 5 6 6 6 6 2 1 2 3 8 10 8 -1 1 6 10 9 7 5 4 4 2 1 1 -0 -0 -0 -0 -0 -0 -0 -0 -1 -2 -3 -3 -2 0 -2 -5 -3 14 19 16
-0 -0 -0 1 2 3 2 3 3 3 2 2 2 2 4 3 2 2 2 4 4 4 5 3 -0 -3 -4 -2 0 4 8 11 9 4 -3 -8 -9 -9 -6 -1 3 4 2 3 4 4 4 0 1 3 5 10 10 6 -3 -1 5 11 10 8 7 6 5 4 2 1 -0 -0 -0 -1 -1 -1 -1 -1 -1 -0 -0 -0 -0 0 -3 -8 -16 -7 1 6
-0 0 1 2 3 3 2 3 4 5 6 5 5 5 6 3 1 1 0 1 2 5 6 5 1 -3 -5 -4 -2 1 7 12 11 5 -3 -7 -9 -9 -7 -4 -0 1 0 -0 1 1 -0 -1 1 5 9 11 8 4 -2 0 6 10 10 8 7 6 5 4 2 1 -0 0 1 1 1 0 -0 -0 -0 2 5 7 5 3 -2 -8 -13 -14 -10 -4
-0 -0 1 3 4 4 3 4 4 4 4 3 1 -1 -4 -6 -6 -4 -2 0 3 6 6 4 1 -2 -4 -2 -0 2 6 10 8 2 -5 -7 -8 -8 -7 -6 -4 -2 -2 -1 1 2 -0 -4 -1 6 12 10 7 4 1 5 8 10 9 9 8 6 4 3 2 1 0 1 2 3 3 2 1 1 -0 1 3 5 7 6 1 -4 -9 -12 -12 -9
-0 -1 0 2 2 3 4 4 4 3 1 -0 -2 -4 -6 -5 -4 -2 -1 2 4 5 4 5 3 0 -1 3 6 6 5 6 5 1 -3 -5 -7 -8 -9 -9 -8 -7 -4 -1 2 3 1 -5 -1 5 10 7 6 6 5 8 10 11 11 10 8 6 3 2 1 1 1 1 1 2 3 2 1 0 -0 0 1 2 3 4 3 1 -3 -6 -8 -7
-0 -0 -0 1 2 3 4 4 3 2 1 1 1 1 2 3 4 4 3 3 1 -0 1 3 3 2 2 6 7 4 1 2 3 2 -0 -4 -7 -9 -10 -9 -8 -6 -2 1 3 3 1 -5 -1 7 11 4 3 5 7 9 11 12 13 11 8 6 4 4 2 1 1 1 1 2 2 1 0 -0 -0 0 1 1 2 1 1 2 3 4 4 3
-0 -0 -0 2 3 3 3 4 4 2 1 1 2 2 2 1 0 -1 -0 -1 -2 -2 -1 -0 0 1 4 6 6 3 -0 -2 1 4 2 -5 -7 -8 -8 -7 -5 -2 -1 -0 1 1 1 -4 -1 5 11 2 0 3 6 7 9 10 10 9 7 6 6 4 3 1 -0 0 1 2 1 0 -1 -1 -1 -0 0 1 1 0 -0 -0 2 8 13 14
-0 -0 -0 2 3 2 2 3 3 3 3 2 1 -1 -1 -3 -4 -4 -3 -1 0 1 1 -1 -2 -1 1 2 5 6 3 -1 1 4 5 -2 -5 -5 -7 -7 -6 -4 -4 -5 -5 -4 -2 -3 -1 0 2 0 -0 1 4 6 7 8 8 6 4 4 6 5 4 2 1 1 2 2 2 0 -1 -2 -1 -1 -0 -0 -0 -0 -0 0 1 6 11 16
0 0 -1 1 2 2 1 1 2 3 4 2 -0 -1 -1 -1 0 1 1 2 3 3 1 0 -0 -0 -1 0 1 1 -0 -0 1 4 7 4 0 -2 -4 -5 -6 -6 -8 -7 -5 -3 -3 -4 -4 -5 -5 -6 -3 1 6 5 5 7 9 7 4 2 2 2 2 2 2 2 3 3 2 1 -0 -1 -2 -1 -1 -1 -1 -1 -1 0 2 4 8 12
1 1 -1 -0 2 3 1 1 1 3 2 -0 -1 -1 0 1 2 3 3 3 3 1 -1 1 2 3 3 2 -1 -4 -3 -1 0 3 8 7 3 -1 -1 -2 -3 -4 -6 -5 -2 -0 -1 -6 -8 -10 -9 -9 -4 4 13 7 6 9 16 14 7 0 -2 -2 -1 0 2 3 4 4 3 2 0 -1 -1 -1 -1 -1 -1 -1 -1 -0 1 3 6 8
1 1 -1 -0 1 2 1 -0 1 1 1 -0 -1 -0 1 1 1 1 0 1 1 1 2 4 5 4 3 1 0 1 4 4 4 5 8 9 4 -2 -1 -1 -2 -4 -4 -3 -2 -1 -4 -8 -11 -12 -11 -10 -3 8 21 14 9 10 17 16 9 1 -4 -3 0 2 2 3 4 5 4 3 1 -0 -1 -1 -1 -1 -2 -1 -1 -0 1 3 4 5
1 1 1 1 1 1 -0 -2 -2 -1 0 2 2 2 3 3 3 2 1 2 3 5 7 8 6 4 1 -0 1 3 4 5 6 6 4 7 5 2 2 0 -1 -2 -3 -2 -2 -3 -5 -8 -10 -10 -10 -11 -6 6 24 19 12 8 8 6 2 -1 -3 -3 2 6 8 4 4 4 4 3 2 1 -0 -1 -1 -1 -2 -1 -1 -0 1 2 3 4
1 2 3 3 2 1 -0 -1 -1 0 4 6 5 4 4 5 5 4 4 4 5 5 5 2 -0 -2 -2 -1 -0 -0 -1 1 2 1 -1 4 8 8 2 -1 -1 -1 -0 0 -1 -3 -6 -8 -8 -6 -6 -8 -8 -0 16 15 13 9 6 2 -1 -4 -5 -6 -1 6 14 9 5 3 3 3 2 1 -0 -1 -2 -2 -2 -1 -1 0 1 2 3 5
1 2 3 4 3 3 2 3 4 6 9 9 8 6 6 5 4 3 2 1 1 -1 -3 -4 -4 -2 0 1 2 1 1 1 1 0 -0 4 8 6 -4 -6 -4 -2 0 2 2 -0 -4 -7 -7 -5 -3 -5 -4 -2 4 6 9 10 8 4 -0 -4 -6 -8 -6 -1 8 9 6 3 2 3 2 2 0 -1 -2 -3 -2 -1 -0 1 2 2 3 4
1 2 2 4 4 4 4 6 7 9 11 10 8 6 6 5 3 2 0 -1 -1 -2 -1 1 3 5 5 4 3 2 2 2 2 4 6 7 7 4 -6 -6 -4 -2 -0 1 2 2 0 -2 -2 -1 2 2 2 1 -1 -0 3 6 8 6 2 -3 -6 -8 -7 -6 -2 1 2 2 3 3 2 1 -0 -2 -3 -3 -3 -1 -0 1 2 2 3 4
1 2 3 4 4 4 5 6 8 10 12 8 6 4 3 3 3 4 5 4 4 4 4 5 4 3 0 -1 -1 -1 -2 -1 1 4 6 6 6 5 2 -0 -1 -0 -1 0 2 3 2 3 3 4 7 7 5 2 -2 -4 -3 -1 2 6 5 1 -3 -6 -7 -6 -6 -4 -4 -4 -1 1 -0 -1 -2 -3 -3 -3 -2 -1 1 2 2 2 2 4
1 2 3 4 4 4 4 6 9 11 11 6 3 1 1 2 3 5 7 6 5 4 2 1 -1 -3 -4 -2 -1 -1 -2 -1 1 3 4 3 4 7 9 4 2 0 -1 0 1 1 -0 0 2 4 6 6 4 1 -2 -6 -7 -6 -2 3 6 5 1 -5 -8 -9 -9 -10 -10 -10 -7 -5 -5 -5 -4 -4 -3 -3 -2 -0 1 2 2 2 1 3
1 2 3 4 4 4 5 7 9 10 9 4 2 1 1 3 4 5 5 4 2 0 -1 -3 -3 -2 1 4 4 2 -0 1 2 3 2 2 4 8 12 6 2 0 -0 1 -0 -2 -5 -5 -3 -0 2 3 2 1 -1 -5 -7 -6 -2 2 6 7 4 -1 -6 -10 -11 -11 -10 -8 -4 -4 -4 -5 -5 -4 -3 -2 -1 0 1 1 1 0 0 2
1 2 3 4 4 5 6 7 8 8 6 3 1 1 2 3 3 2 1 2 2 2 1 -0 0 1 2 2 1 -1 -1 0 0 -0 -0 1 4 8 12 7 3 1 1 0 -2 -4 -6 -5 -4 -3 -0 0 0 0 1 -2 -4 -4 -0 4 6 8 6 1 -3 -6 -8 -7 -5 -2 3 1 -1 -2 -3 -2 -2 -1 -1 -0 0 0 -0 -1 -0 2
2 3 4 4 5 5 5 5 5 4 3 1 1 0 0 -0 -1 -1 -0 3 5 5 3 2 2 2 1 -1 -2 -1 0 1 -1 -2 -1 0 3 6 8 8 6 4 1 -0 -2 -3 -2 -2 -2 -2 0 1 -0 -1 -0 -0 -2 -3 -1 3 5 6 5 1 -1 -1 -0 0 2 4 7 4 1 -0 -1 -0 -0 0 0 -0 -0 -0 -0 1 3 6
3 4 4 4 4 4 4 3 2 1 1 0 -0 -0 -1 -2 -2 -1 2 4 5 4 2 1 1 2 3 4 6 6 5 2 -1 -1 1 2 2 4 5 7 8 6 1 0 -0 -1 -2 -4 -4 -3 1 2 1 -1 -2 -1 -1 -2 -4 -0 2 4 3 1 1 2 5 6 6 7 9 5 2 1 0 1 1 2 1 1 2 3 6 6 8 9
5 5 5 4 4 4 3 2 1 0 -0 -0 -0 -0 -1 -1 -1 0 2 2 2 1 1 1 2 3 5 7 7 4 -0 -3 -3 -0 3 1 1 1 2 4 5 5 2 1 0 -1 -4 -8 -8 -4 1 4 4 2 -2 -2 -2 -2 -4 -3 -1 1 1 -0 1 4 7 7 7 6 6 3 2 1 1 1 1 2 3 3 5 8 11 12 10 8
7 7 6 5 4 4 3 2 1 1 0 0 0 0 -0 -0 -0 -0 -1 -1 -1 0 2 3 4 5 6 6 3 -1 -5 -4 -1 1 3 1 -0 0 3 2 3 4 6 3 0 -2 -4 -6 -6 -3 3 6 6 4 -0 -4 -4 -4 -2 -4 -2 -1 -1 -2 -0 3 6 6 6 5 4 2 1 0 0 1 1 2 3 4 7 10 12 11 7 3
7 6 6 4 3 3 2 2 2 1 1 1 1 1 0 0 -0 -1 -1 -2 -1 1 2 3 3 4 6 5 4 3 3 5 6 5 3 1 1 2 3 1 2 5 7 6 3 -1 -2 -2 -2 -0 6 9 8 5 1 -3 -5 -5 -2 -3 -3 -2 -3 -2 -0 2 5 5 4 4 3 2 1 0 -0 -0 -0 0 1 3 5 8 9 8 4 1
5 4 4 2 1 1 1 1 1 1 1 2 1 1 1 0 -0 -0 -1 -0 0 1 0 -0 0 1 2 2 3 5 8 9 7 5 3 3 3 2 -0 -1 0 3 5 5 4 1 -1 -1 -0 2 7 8 8 6 4 -0 -4 -7 -5 -4 -3 -3 -3 -2 -1 1 2 2 3 3 3 3 2 1 1 -0 -0 -0 0 1 2 4 6 6 6 6
3 3 2 1 1 1 0 0 -0 0 1 1 1 1 1 1 0 -0 -0 0 -0 -0 -1 -1 -1 -1 -1 -1 1 3 5 4 2 1 2 2 2 -0 -2 -2 -1 0 0 2 2 1 -0 -1 -0 1 4 4 5 5 6 1 -5 -9 -9 -6 -4 -2 -2 -2 -2 -1 -1 0 1 2 3 3 3 2 1 0 0 1 1 1 2 4 6 8 11 13
1 1 1 1 1 1 1 1 1 1 1 1 2 2 1 1 1 1 0 0 -0 -0 -1 -1 -1 -1 -2 -1 -1 -0 0 -0 0 1 2 0 -1 -1 -1 -2 -1 -0 0 1 1 1 0 -1 -0 2 4 5 6 6 4 -1 -6 -10 -10 -7 -5 -4 -4 -3 -3 -2 -2 -0 2 3 4 4 3 2 0 -1 -1 -0 0 0 2 4 6 10 13 15
0 0 -0 -0 0 0 0 1 1 1 1 2 2 1 1 1 1 1 0 0 0 0 0 -0 -0 -1 -1 -1 -1 -1 -0 1 3 4 2 0 -1 -1 -1 -2 -2 -1 2 3 2 1 -1 -1 0 2 5 7 7 6 4 -0 -4 -7 -7 -7 -6 -6 -6 -5 -4 -3 -2 0 2 3 4 6 5 3 -0 -1 -1 -1 -1 -2 -1 1 3 7 10 11
-0 -0 -0 -0 -0 -0 -0 0 0 1 1 1 1 1 1 1 1 0 0 0 0 0 0 -0 -0 -0 -0 -1 -1 -1 0 2 2 2 1 0 -0 -0 -1 -2 -1 1 3 3 2 0 -0 -0 1 2 2 1 0 1 1 0 -1 -2 -4 -8 -10 -10 -7 -5 -4 -3 -1 0 1 2 3 6 7 5 2 -0 -1 -1 -2 -2 -2 -1 1 2 3 4
-1 -1 -0 -0 -0 -0 -0 0 0 1 1 1 1 1 1 1 1 1 1 1 0 0 -0 -0 0 1 1 1 1 1 0 -0 -1 -1 -1 -0 -0 -0 -1 0 1 1 0 1 2 2 3 1 -0 -1 -1 -2 -2 -1 -0 -0 1 0 -4 -8 -10 -9 -7 -6 -5 -3 -0 1 2 2 3 5 6 7 6 4 2 -0 -1 -1 -1 -0 2 3 3 2
-0 -0 -0 0 0 1 1 1 1 2 2 2 2 1 1 1 1 1 1 1 1 1 1 1 1 2 2 3 4 3 2 1 0 -0 0 0 0 0 0 2 1 0 -1 -0 1 2 2 0 -1 -2 -1 1 2 2 1 1 0 -2 -5 -7 -5 -4 -5 -8 -8 -5 -1 1 2 3 1 0 1 4 6 6 5 2 1 0 1 2 4 5 6 6
-0 -0 0 0 1 1 1 1 1 1 1 1 1 1 1 1 1 1 1 1 1 1 2 2 2 2 2 3 4 4 5 4 4 4 3 1 1 1 1 2 2 2 1 0 -0 -1 -2 -2 -1 -0 1 2 3 2 1 1 -1 -4 -6 -5 -4 -6 -10 -11 -9 -7 -4 -2 -0 -1 -3 -4 -4 -1 2 4 4 2 -0 0 2 5 6 6 6 5
-1 -0 -0 -0 -0 -0 0 0 0 1 1 1 1 1 1 1 1 1 1 1 1 1 1 1 1 0 -0 -0 1 2 4 5 5 4 3 2 1 1 1 1 1 2 2 1 -1 -2 -3 -3 -1 0 2 2 1 1 1 0 -1 -2 -1 -0 -2 -5 -10 -10 -9 -8 -8 -6 -4 -5 -7 -8 -6 -4 -1 2 3 3 0 -0 1 4 5 5 4 3
-1 -1 -1 -1 -1 -1 -1 -0 1 1 1 1 1 1 1 1 2 2 2 2 2 2 2 2 1 1 -0 -1 -1 -1 0 2 3 3 3 3 2 2 1 1 2 3 3 2 0 -1 -3 -4 -2 0 2 1 1 2 2 1 0 0 1 -0 -2 -3 -3 -3 -6 -10 -14 -12 -10 -8 -8 -9 -8 -6 -5 -1 3 6 6 4 3 3 4 3 3 3
-1 -1 -2 -1 -1 -1 -0 0 1 2 2 2 2 1 1 1 1 2 2 2 2 3 3 3 3 3 2 0 -0 -1 -1 -0 1 1 2 2 2 2 2 3 3 4 4 4 2 0 -2 -3 -3 -2 -0 2 2 2 3 1 1 0 -1 -3 -4 -4 -2 -4 -7 -10 -10 -10 -10 -9 -6 -7 -9 -10 -9 -5 1 7 10 9 8 7 6 4 3 3
-2 -2 -2 -2 -1 -1 -0 0 1 1 2 2 2 2 2 1 1 2 2 2 2 2 2 3 3 3 2 1 -0 -1 -1 -0 -0 -0 -0 -0 0 1 2 3 4 4 4 3 3 2 1 -0 -2 -3 -3 1 3 4 2 1 -0 -1 -2 -3 -3 -2 -4 -8 -9 -8 -5 -6 -7 -8 -6 -8 -11 -13 -12 -6 0 7 11 12 11 10 9 8 7 5
-2 -2 -2 -2 -1 -1 -0 -0 0 0 1 1 1 2 2 2 2 2 2 2 2 1 1 2 2 2 2 1 -0 -1 -1 -1 -0 -0 -1 -1 -1 -1 -0 1 2 4 4 3 2 2 3 2 1 -0 0 4 6 7 4 1 -1 -2 -1 -1 -1 -1 -2 -6 -7 -6 -4 -5 -6 -7 -7 -10 -13 -15 -12 -6 1 8 12 13 14 13 12 12 11 9
-1 -2 -2 -2 -1 -1 -1 -1 -1 -1 -0 0 1 1 1 1 1 1 1 1 1 1 1 1 1 1 2 2 2 0 -0 -0 -0 -0 -0 -1 -1 -1 -1 -0 0 2 3 3 4 4 4 4 4 4 7 8 10 11 8 3 1 0 1 0 0 1 -0 -2 -3 -4 -6 -7 -7 -6 -6 -9 -11 -12 -10 -6 -0 5 9 11 13 14 13 11 10 9
-1 -1 -1 -1 -1 -2 -2 -2 -2 -2 -1 -1 -0 -0 -0 0 0 0 0 0 0 0 0 -0 0 1 1 2 2 2 1 1 1 2 2 1 1 0 0 1 0 0 1 3 4 4 5 5 5 6 9 9 10 11 11 8 5 2 2 1 2 3 3 1 -1 -3 -4 -6 -7 -7 -5 -5 -5 -5 -5 -2 1 4 6 7 9 10 11 9 6 5
-0 -1 -1 -1 -2 -2 -2 -2 -2 -3 -2 -2 -1 -1 -1 -1 -0 -0 0 -0 -0 -0 -1 -1 -0 -0 1 1 1 1 1 1 2 3 4 3 3 2 3 3 2 1 1 2 3 3 3 4 5 6 6 6 7 8 10 10 7 4 1 2 4 5 5 3 0 -1 -3 -5 -6 -7 -6 -4 -2 -1 -1 1 3 5 6 5 5 5 6 6 3 -0
Height
2878 2879 2879 2879 2879 2879 2879 2880 2881 2882 2884 2886 2888 2889 2890 2891 2893 2895 2896 2898 2899 2901 2903 2904 2906 2907 2909 2911 2914 2916 2919 2922 2926 2930 2934 2938 2942 2946 2948 2950 2953 2956 2961 2965 2969 2972 2975 2978 2981 2985 2989 2992 2995 2996 2997 2999 3001 3002 3005 3006 3008 3010 3012 3013 3015 3017 3019 3021 3023 3026 3029 3032 3036 3040 3044 3049 3053 3056 3060 3063 3066 3069 3072 3075 3078 3081
2877 2877 2877 2877 2877 2877 2877 2878 2879 2881 2882 2884 2886 2888 2889 2890 2892 2893 2895 2897 2898 2900 2902 2903 2905 2906 2907 2910 2912 2914 2917 2920 2924 2927 2932 2936 2940 2944 2946 2948 2951 2954 2959 2963 2967 2970 2973 2976 2979 2982 2986 2990 2992 2994 2996 2998 3000 3001 3003 3005 3006 3008 3010 3011 3013 3015 3016 3019 3022 3025 3028 3031 3035 3039 3043 3047 3051 3054 3057 3061 3064 3067 3071 3073 3076 3079
2876 2876 2876 2876 2876 2876 2876 2877 2878 2879 2881 2882 2884 2886 2887 2889 2891 2892 2894 2896 2898 2899 2901 2902 2904 2905 2907 2909 2911 2913 2916 2919 2922 2926 2930 2934 2938 2941 2944 2945 2948 2952 2956 2960 2965 2968 2971 2973 2976 2980 2984 2987 2990 2992 2995 2997 2998 3000 3002 3003 3005 3007 3009 3011 3013 3015 3016 3019 3022 3025 3028 3031 3035 3039 3043 3046 3049 3052 3055 3058 3062 3065 3068 3071 3074 3076
2875 2875 2875 2874 2875 2875 2875 2876 2876 2878 2879 2881 2883 2884 2886 2887 2889 2891 2893 2895 2897 2899 2900 2901 2902 2905 2907 2910 2911 2913 2915 2917 2920 2924 2927 2931 2936 2939 2941 2943 2945 2949 2953 2957 2962 2966 2970 2972 2975 2978 2981 2984 2987 2991 2994 2996 2997 2999 3001 3002 3004 3006 3008 3011 3013 3015 3017 3019 3022 3025 3028 3031 3034 3038 3041 3044 3047 3050 3053 3056 3059 3062 3065 3068 3071 3074
2874 2873 2873 2873 2873 2874 2874 2875 2876 2876 2878 2880 2881 2883 2885 2886 2887 2889 2891 2893 2896 2898 2899 2901 2902 2904 2906 2908 2910 2912 2914 2916 2919 2921 2925 2929 2933 2937 2939 2941 2943 2947 2951 2956 2960 2964 2968 2971 2973 2976 2978 2981 2985 2989 2992 2995 2996 2997 2999 3001 3003 3005 3007 3010 3012 3014 3017 3019 3021 3024 3027 3030 3032 3036 3039 3042 3045 3047 3051 3054 3057 3060 3063 3066 3069 3072
2872 2872 2872 2872 2872 2872 2873 2874 2875 2876 2877 2878 2880 2881 2883 2884 2886 2888 2890 2892 2895 2897 2899 2900 2901 2903 2905 2907 2910 2911 2913 2915 2917 2920 2923 2927 2931 2935 2938 2939 2941 2945 2949 2953 2958 2962 2966 2969 2971 2973 2976 2978 2982 2986 2989 2991 2993 2995 2997 2999 3002 3004 3006 3008 3011 3013 3016 3019 3021 3023 3025 3028 3030 3033 3036 3039 3041 3045 3048 3051 3054 3057 3060 3063 3066 3069
2871 2871 2871 2871 2871 2871 2872 2873 2874 2874 2876 2877 2878 2879 2881 2883 2885 2886 2888 2891 2893 2896 2898 2899 2901 2902 2904 2907 2909 2911 2912 2914 2916 2918 2921 2925 2929 2933 2936 2937 2939 2943 2947 2951 2955 2959 2963 2967 2969 2971 2972 2975 2979 2982 2986 2988 2990 2992 2995 2998 3001 3003 3006 3008 3010 3012 3015 3017 3020 3021 3024 3026 3028 3031 3035 3037 3040 3043 3046 3049 3052 3055 3057 3060 3063 3066
2870 2870 2870 2870 2871 2871 2871 2872 2872 2873 2874 2876 2877 2878 2880 2881 2883 2885 2886 2888 2891 2894 2897 2899 2900 2902 2904 2906 2909 2911 2912 2913 2915 2917 2920 2923 2927 2930 2933 2935 2937 2941 2945 2949 2953 2956 2961 2964 2966 2968 2970 2972 2976 2980 2983 2986 2988 2991 2994 2997 3000 3002 3005 3007 3010 3012 3014 3016 3018 3020 3022 3025 3026 3029 3033 3036 3039 3042 3045 3048 3050 3052 3054 3057 3060 3063
2869 2869 2869 2869 2870 2870 2871 2871 2871 2872 2873 2875 2876 2877 2879 2880 2881 2883 2885 2887 2891 2893 2896 2898 2900 2901 2903 2905 2907 2910 2911 2913 2915 2916 2919 2921 2925 2928 2931 2933 2936 2939 2943 2946 2950 2954 2958 2962 2965 2966 2968 2971 2974 2978 2981 2984 2987 2990 2992 2995 2998 3001 3003 3006 3009 3011 3013 3015 3017 3019 3021 3023 3026 3028 3031 3034 3038 3041 3044 3046 3047 3048 3050 3052 3055 3059
2868 2868 2868 2868 2869 2869 2870 2870 2871 2871 2872 2874 2875 2876 2877 2878 2880 2882 2884 2887 2889 2892 2895 2897 2898 2900 2901 2904 2906 2909 2911 2911 2913 2915 2917 2919 2922 2925 2929 2932 2935 2937 2940 2943 2947 2951 2956 2960 2963 2965 2967 2970 2973 2976 2979 2982 2985 2988 2991 2993 2996 2998 3001 3005 3008 3010 3012 3014 3016 3019 3021 3023 3026 3028 3030 3034 3037 3040 3042 3044 3045 3046 3046 3048 3051 3055
2866 2866 2867 2867 2868 2868 2869 2870 2870 2871 2872 2873 2874 2875 2876 2877 2879 2881 2883 2885 2887 2890 2893 2895 2897 2898 2901 2903 2905 2907 2909 2911 2912 2913 2915 2916 2919 2922 2926 2930 2932 2935 2937 2941 2946 2950 2954 2958 2961 2963 2966 2969 2971 2974 2976 2981 2984 2986 2989 2991 2994 2996 3000 3003 3007 3009 3011 3013 3016 3018 3021 3023 3026 3028 3031 3033 3036 3038 3040 3042 3044 3045 3045 3046 3048 3052
2865 2866 2866 2866 2867 2868 2868 2869 2870 2871 2871 2872 2873 2875 2876 2877 2878 2880 2881 2884 2886 2888 2891 2893 2896 2897 2899 2901 2904 2906 2908 2910 2910 2911 2912 2915 2917 2921 2925 2928 2931 2933 2936 2940 2944 2948 2952 2955 2958 2961 2964 2967 2970 2971 2974 2978 2982 2985 2987 2989 2992 2995 2998 3002 3005 3008 3010 3013 3015 3017 3020 3022 3025 3027 3030 3032 3034 3036 3038 3040 3042 3043 3044 3045 3046 3050
2865 2865 2865 2866 2866 2867 2868 2868 2869 2870 2871 2871 2872 2873 2874 2875 2876 2878 2880 2882 2885 2887 2889 2891 2894 2896 2898 2900 2902 2905 2906 2908 2909 2909 2910 2912 2916 2919 2923 2926 2930 2932 2935 2938 2942 2946 2950 2953 2956 2959 2962 2965 2968 2970 2972 2975 2980 2984 2985 2987 2990 2993 2996 3000 3003 3006 3009 3011 3014 3017 3019 3022 3024 3026 3028 3030 3032 3034 3036 3038 3041 3043 3043 3045 3046 3050
2864 2864 2864 2865 2865 2866 2867 2868 2868 2869 2869 2870 2871 2871 2872 2874 2875 2877 2879 2881 2883 2885 2887 2890 2892 2894 2896 2899 2902 2904 2906 2906 2907 2908 2910 2912 2915 2918 2921 2925 2928 2931 2934 2938 2941 2945 2949 2952 2954 2957 2960 2964 2966 2968 2970 2973 2977 2981 2983 2985 2988 2991 2994 2997 3001 3004 3007 3010 3013 3016 3018 3021 3023 3025 3027 3029 3031 3033 3036 3038 3040 3043 3044 3046 3048 3051
2863 2863 2863 2863 2864 2865 2866 2867 2867 2868 2869 2869 2870 2871 2873 2874 2876 2877 2878 2880 2881 2883 2885 2888 2890 2892 2894 2897 2900 2902 2904 2905 2906 2908 2909 2911 2914 2917 2921 2924 2927 2930 2933 2936 2940 2944 2947 2950 2952 2955 2958 2962 2964 2966 2968 2971 2975 2978 2982 2984 2986 2988 2992 2995 2998 3002 3005 3008 3011 3014 3016 3019 3021 3024 3026 3029 3031 3033 3035 3038 3041 3043 3045 3047 3050 3052
2862 2862 2862 2863 2863 2864 2865 2866 2867 2868 2868 2869 2870 2871 2873 2874 2875 2876 2877 2878 2879 2881 2883 2885 2887 2890 2892 2895 2897 2899 2901 2903 2905 2907 2908 2911 2914 2916 2920 2923 2926 2929 2932 2935 2939 2942 2945 2947 2951 2955 2957 2959 2962 2964 2966 2969 2972 2976 2980 2982 2984 2986 2990 2993 2996 3000 3003 3006 3009 3012 3015 3017 3020 3023 3025 3027 3030 3032 3035 3037 3040 3042 3045 3048 3050 3052
2861 2861 2861 2862 2863 2864 2865 2866 2866 2867 2868 2869 2869 2870 2871 2871 2873 2874 2876 2877 2879 2880 2881 2882 2884 2886 2889 2891 2894 2897 2899 2902 2904 2906 2908 2911 2913 2916 2919 2922 2925 2928 2931 2934 2937 2940 2943 2946 2950 2953 2956 2957 2960 2962 2965 2967 2970 2974 2978 2980 2982 2984 2988 2991 2994 2997 3000 3004 3007 3010 3013 3016 3019 3021 3024 3026 3029 3031 3033 3036 3039 3041 3044 3046 3049 3052
2861 2861 2861 2861 2862 2863 2864 2865 2866 2866 2867 2868 2868 2869 2870 2871 2873 2874 2876 2877 2878 2879 2880 2881 2882 2884 2886 2889 2892 2894 2897 2901 2904 2907 2909 2911 2913 2916 2918 2921 2924 2926 2929 2932 2935 2939 2941 2944 2947 2950 2954 2956 2958 2961 2963 2966 2968 2972 2976 2977 2979 2982 2985 2989 2992 2995 2998 3001 3005 3008 3011 3014 3017 3020 3022 3025 3027 3030 3032 3035 3038 3041 3043 3045 3048 3050
2860 2861 2861 2861 2861 2862 2863 2864 2865 2866 2866 2867 2868 2869 2871 2872 2873 2875 2876 2876 2877 2878 2879 2881 2883 2884 2886 2888 2890 2892 2896 2900 2904 2907 2910 2911 2913 2916 2918 2920 2923 2925 2928 2931 2934 2937 2940 2943 2945 2948 2951 2953 2956 2959 2961 2964 2967 2970 2974 2976 2977 2980 2983 2986 2989 2993 2996 2999 3003 3006 3009 3012 3015 3018 3021 3023 3026 3029 3031 3034 3037 3039 3042 3045 3047 3050
2860 2860 2860 2860 2861 2862 2863 2864 2864 2865 2866 2867 2868 2869 2870 2871 2872 2873 2874 2876 2877 2878 2879 2881 2883 2885 2887 2888 2891 2893 2897 2900 2903 2906 2909 2911 2913 2915 2917 2920 2922 2924 2927 2930 2933 2936 2939 2942 2944 2947 2949 2951 2954 2958 2961 2963 2966 2970 2973 2974 2976 2977 2980 2983 2987 2991 2994 2997 3001 3004 3008 3011 3014 3016 3019 3022 3025 3027 3030 3033 3036 3038 3041 3043 3046 3048
2859 2859 2859 2860 2860 2861 2862 2863 2864 2865 2866 2867 2868 2869 2870 2871 2871 2872 2874 2875 2876 2878 2880 2881 2882 2884 2886 2888 2891 2894 2897 2900 2903 2906 2908 2910 2912 2914 2916 2918 2921 2923 2926 2928 2931 2934 2937 2940 2943 2945 2948 2951 2954 2957 2961 2963 2966 2969 2972 2974 2974 2976 2978 2981 2985 2989 2992 2996 3000 3003 3006 3009 3012 3015 3018 3021 3023 3026 3029 3031 3034 3037 3039 3042 3044 3046
2858 2858 2859 2860 2860 2861 2862 2863 2864 2865 2866 2867 2867 2868 2869 2870 2871 2872 2874 2875 2876 2877 2879 2880 2881 2883 2885 2887 2889 2892 2895 2898 2901 2904 2907 2910 2912 2914 2916 2917 2920 2922 2925 2927 2930 2933 2936 2939 2942 2944 2947 2950 2953 2956 2960 2962 2965 2968 2971 2972 2973 2974 2977 2980 2984 2987 2991 2995 2998 3001 3005 3008 3011 3014 3016 3019 3022 3025 3027 3030 3033 3036 3038 3040 3042 3045
2857 2858 2859 2859 2860 2861 2862 2863 2864 2865 2866 2866 2867 2868 2869 2870 2871 2872 2873 2874 2875 2876 2877 2878 2880 2882 2884 2886 2888 2891 2894 2896 2899 2902 2906 2909 2911 2913 2915 2917 2919 2921 2924 2926 2929 2932 2935 2938 2941 2943 2946 2948 2951 2954 2957 2960 2963 2966 2967 2968 2970 2972 2975 2978 2982 2986 2990 2993 2996 3000 3003 3006 3009 3012 3015 3018 3021 3023 3026 3029 3031 3034 3036 3039 3041 3043
2857 2857 2858 2859 2860 2861 2862 2863 2864 2865 2865 2866 2867 2868 2869 2870 2871 2871 2872 2874 2875 2876 2877 2879 2881 2883 2884 2886 2888 2890 2893 2895 2898 2901 2905 2907 2910 2912 2914 2916 2918 2921 2923 2925 2928 2931 2934 2937 2940 2942 2945 2948 2950 2952 2954 2957 2960 2963 2964 2966 2968 2971 2974 2976 2980 2983 2988 2991 2994 2998 3001 3005 3008 3011 3013 3016 3019 3022 3025 3027 3030 3033 3035 3037 3039 3041
2857 2857 2858 2859 2860 2861 2862 2863 2863 2864 2864 2865 2866 2868 2869 2870 2871 2872 2873 2874 2875 2876 2877 2879 2880 2881 2883 2884 2886 2889 2891 2894 2897 2900 2903 2906 2908 2911 2913 2915 2917 2919 2921 2924 2927 2930 2933 2936 2939 2942 2945 2947 2949 2950 2951 2954 2957 2960 2963 2965 2967 2970 2973 2975 2978 2981 2985 2988 2992 2996 2999 3003 3006 3009 3012 3015 3017 3020 3023 3026 3029 3031 3034 3036 3038 3040
2856 2857 2858 2859 2860 2860 2861 2862 2862 2863 2863 2865 2866 2867 2868 2869 2870 2871 2872 2874 2875 2876 2877 2877 2878 2879 2881 2883 2885 2887 2890 2892 2896 2898 2901 2904 2907 2910 2912 2914 2916 2918 2920 2923 2926 2929 2932 2935 2938 2941 2943 2945 2947 2948 2950 2952 2955 2958 2961 2964 2966 2969 2971 2974 2977 2980 2982 2986 2989 2993 2997 3001 3004 3007 3010 3013 3016 3019 3021 3024 3027 3030 3032 3035 3036 3039
2856 2857 2858 2858 2859 2860 2860 2861 2861 2862 2863 2864 2865 2866 2867 2869 2870 2871 2871 2872 2873 2874 2875 2876 2877 2879 2881 2883 2885 2887 2889 2892 2895 2897 2900 2903 2907 2909 2911 2913 2915 2917 2920 2922 2924 2927 2930 2933 2936 2939 2941 2943 2946 2947 2949 2951 2953 2956 2959 2962 2965 2967 2970 2972 2975 2978 2981 2984 2987 2991 2996 2999 3002 3006 3009 3012 3015 3017 3020 3023 3026 3028 3031 3033 3035 3037
2856 2857 2857 2858 2859 2859 2860 2860 2861 2861 2862 2864 2865 2866 2867 2868 2869 2870 2871 2872 2873 2874 2875 2876 2878 2879 2881 2883 2885 2886 2889 2891 2893 2896 2899 2902 2906 2908 2910 2912 2914 2916 2918 2920 2922 2925 2928 2931 2935 2937 2940 2942 2945 2947 2949 2950 2952 2955 2958 2961 2964 2966 2969 2971 2974 2977 2980 2983 2987 2991 2995 2998 3001 3004 3007 3011 3013 3016 3019 3021 3024 3027 3029 3031 3034 3036
2856 2857 2857 2858 2859 2859 2860 2860 2861 2861 2862 2863 2865 2866 2867 2868 2869 2870 2871 2873 2874 2875 2876 2877 2878 2879 2881 2882 2884 2886 2888 2891 2892 2895 2898 2901 2904 2906 2909 2911 2914 2916 2917 2919 2921 2925 2928 2931 2934 2936 2939 2941 2945 2947 2949 2950 2952 2954 2957 2960 2963 2966 2969 2971 2973 2976 2980 2983 2987 2990 2994 2996 3000 3003 3006 3009 3012 3015 3017 3020 3023 3026 3028 3030 3032 3034
2856 2857 2857 2858 2859 2859 2860 2860 2861 2861 2862 2863 2865 2866 2867 2868 2869 2870 2871 2873 2874 2875 2876 2877 2878 2879 2881 2882 2884 2886 2888 2890 2892 2894 2897 2900 2902 2905 2908 2911 2912 2914 2916 2919 2922 2925 2927 2930 2933 2936 2938 2941 2944 2946 2948 2950 2952 2954 2957 2960 2963 2966 2969 2971 2974 2977 2980 2983 2986 2990 2993 2996 2999 3002 3005 3008 3011 3013 3016 3019 3021 3024 3026 3028 3031 3033
2856 2857 2857 2858 2859 2859 2860 2860 2861 2861 2862 2864 2865 2866 2867 2868 2869 2870 2871 2872 2873 2874 2876 2877 2878 2879 2881 2882 2884 2886 2887 2889 2891 2894 2896 2899 2901 2903 2906 2909 2911 2913 2916 2918 2921 2923 2926 2929 2932 2935 2937 2940 2942 2945 2947 2949 2951 2954 2957 2960 2963 2966 2969 2972 2975 2977 2980 2982 2986 2989 2992 2995 2997 3001 3003 3006 3009 3012 3015 3017 3020 3022 3025 3027 3029 3031
2857 2857 2858 2858 2859 2860 2860 2861 2861 2862 2863 2864 2865 2866 2867 2868 2869 2870 2871 2871 2872 2874 2875 2877 2878 2879 2880 2881 2883 2884 2886 2888 2891 2893 2895 2897 2900 2902 2904 2907 2910 2912 2915 2917 2920 2922 2924 2928 2931 2934 2937 2939 2941 2944 2946 2949 2951 2953 2957 2960 2963 2966 2968 2971 2974 2977 2980 2982 2984 2987 2990 2993 2996 2999 3002 3005 3007 3011 3013 3016 3019 3021 3023 3025 3027 3028
2857 2858 2858 2859 2859 2860 2861 2861 2862 2863 2864 2865 2865 2866 2867 2868 2868 2869 2870 2871 2872 2873 2875 2876 2877 2878 2880 2881 2883 2885 2887 2889 2891 2892 2894 2896 2899 2901 2903 2906 2909 2912 2915 2917 2919 2922 2925 2927 2931 2934 2936 2938 2940 2943 2946 2948 2950 2953 2956 2959 2962 2965 2968 2971 2974 2976 2979 2981 2983 2986 2989 2992 2995 2997 3000 3003 3006 3009 3011 3015 3017 3019 3021 3023 3024 3026
2857 2858 2859 2859 2860 2861 2861 2862 2863 2863 2864 2865 2865 2866 2866 2867 2868 2869 2870 2871 2872 2873 2873 2875 2876 2877 2879 2881 2883 2885 2887 2889 2890 2891 2893 2896 2898 2900 2902 2905 2908 2911 2914 2916 2919 2922 2925 2928 2931 2934 2936 2937 2939 2941 2944 2947 2950 2952 2955 2958 2961 2964 2967 2970 2973 2976 2978 2980 2982 2985 2988 2991 2993 2996 2999 3001 3004 3007 3009 3012 3015 3017 3019 3021 3022 3025
2858 2858 2859 2859 2860 2861 2861 2862 2863 2864 2864 2865 2865 2866 2866 2867 2868 2868 2869 2870 2871 2872 2873 2874 2875 2876 2878 2879 2881 2883 2885 2886 2888 2890 2892 2894 2896 2898 2901 2903 2906 2909 2912 2916 2918 2921 2924 2927 2930 2932 2935 2936 2938 2941 2943 2946 2949 2951 2954 2957 2961 2964 2966 2969 2972 2974 2977 2979 2981 2984 2986 2989 2992 2994 2997 3000 3002 3005 3008 3010 3013 3016 3017 3019 3021 3024
2858 2859 2859 2860 2861 2861 2862 2862 2863 2864 2864 2865 2865 2866 2866 2866 2867 2868 2869 2869 2870 2871 2872 2873 2874 2876 2877 2878 2879 2881 2882 2884 2886 2888 2890 2892 2895 2897 2900 2902 2905 2908 2911 2915 2918 2921 2923 2926 2928 2931 2933 2935 2937 2940 2942 2945 2948 2951 2954 2957 2960 2963 2965 2968 2970 2973 2976 2978 2980 2982 2985 2988 2991 2993 2996 2998 3001 3003 3006 3009 3011 3014 3016 3018 3021 3023
2859 2860 2860 2861 2861 2862 2862 2863 2863 2863 2864 2864 2865 2865 2866 2866 2867 2867 2868 2869 2870 2871 2872 2873 2874 2876 2877 2878 2879 2880 2882 2884 2886 2887 2889 2891 2894 2896 2899 2901 2905 2908 2911 2914 2917 2920 2922 2925 2928 2931 2932 2934 2936 2938 2941 2943 2946 2950 2953 2956 2959 2961 2964 2966 2969 2972 2975 2977 2979 2981 2984 2987 2989 2991 2994 2996 2999 3002 3005 3007 3010 3013 3015 3017 3020 3022
2860 2861 2861 2861 2862 2862 2862 2863 2863 2863 2864 2864 2865 2865 2865 2866 2866 2867 2868 2869 2870 2871 2872 2873 2874 2875 2876 2878 2879 2881 2882 2884 2885 2887 2889 2891 2894 2896 2898 2901 2904 2907 2910 2912 2915 2918 2921 2924 2927 2929 2931 2933 2935 2937 2940 2942 2945 2948 2951 2955 2957 2960 2963 2966 2968 2971 2973 2976 2978 2980 2983 2986 2988 2991 2993 2995 2998 3001 3003 3006 3008 3011 3014 3016 3018 3021
2861 2861 2862 2862 2862 2862 2863 2863 2863 2863 2864 2864 2864 2865 2865 2865 2866 2866 2867 2868 2869 2870 2871 2872 2874 2875 2876 2878 2879 2881 2882 2883 2885 2886 2888 2891 2893 2896 2898 2901 2903 2906 2909 2912 2915 2917 2920 2922 2925 2926 2929 2931 2934 2936 2939 2941 2944 2947 2951 2954 2957 2960 2962 2965 2967 2970 2972 2975 2977 2979 2981 2984 2987 2990 2992 2994 2996 2999 3001 3004 3006 3009 3011 3014 3016 3019
2862 2862 2863 2863 2863 2863 2863 2863 2863 2864 2864 2864 2864 2864 2864 2865 2865 2866 2866 2867 2868 2870 2871 2872 2873 2875 2876 2878 2879 2881 2882 2883 2885 2886 2889 2891 2893 2895 2897 2900 2902 2905 2908 2911 2914 2916 2919 2921 2923 2925 2927 2930 2933 2936 2938 2941 2943 2946 2950 2953 2956 2959 2961 2964 2966 2969 2971 2974 2976 2978 2980 2982 2985 2989 2991 2994 2996 2998 3000 3002 3005 3007 3009 3011 3013 3015
2863 2863 2863 2863 2863 2863 2863 2863 2864 2864 2863 2864 2864 2864 2864 2864 2865 2866 2866 2867 2868 2869 2871 2872 2873 2875 2876 2877 2879 2881 2882 2884 2886 2887 2889 2891 2892 2895 2897 2899 2901 2904 2907 2910 2912 2915 2917 2919 2922 2924 2927 2930 2932 2935 2937 2940 2942 2946 2949 2952 2954 2956 2959 2962 2965 2968 2970 2973 2975 2976 2978 2980 2983 2986 2990 2993 2995 2997 2999 3002 3004 3006 3008 3010 3011 3013
2864 2864 2864 2864 2864 2864 2864 2864 2864 2864 2863 2863 2863 2863 2863 2864 2864 2865 2866 2866 2867 2869 2870 2871 2872 2874 2875 2877 2878 2880 2882 2884 2885 2887 2888 2890 2892 2894 2896 2898 2901 2904 2906 2909 2911 2914 2916 2918 2921 2923 2926 2929 2931 2934 2936 2939 2942 2945 2947 2950 2953 2956 2959 2962 2964 2967 2969 2971 2974 2976 2977 2978 2981 2984 2988 2991 2994 2996 2999 3001 3003 3005 3007 3009 3011 3012
2865 2865 2864 2864 2864 2864 2864 2864 2864 2864 2863 2863 2863 2863 2863 2863 2864 2864 2865 2866 2867 2868 2869 2870 2871 2872 2874 2876 2877 2879 2881 2883 2884 2886 2888 2890 2891 2893 2895 2897 2900 2902 2905 2907 2910 2913 2915 2918 2921 2923 2925 2927 2930 2933 2935 2938 2941 2944 2946 2949 2952 2956 2958 2961 2963 2965 2967 2970 2972 2974 2976 2977 2978 2981 2985 2989 2992 2995 2998 3000 3002 3004 3006 3007 3009 3011
2865 2865 2865 2865 2865 2865 2865 2864 2864 2863 2863 2863 2862 2862 2863 2863 2863 2864 2865 2866 2866 2867 2869 2870 2871 2872 2874 2875 2876 2878 2880 2881 2883 2885 2887 2889 2891 2892 2894 2896 2898 2901 2904 2906 2909 2912 2915 2917 2920 2922 2925 2927 2930 2933 2935 2937 2940 2943 2945 2948 2951 2954 2956 2958 2960 2963 2965 2968 2970 2973 2975 2976 2978 2980 2983 2987 2991 2994 2996 2998 3000 3002 3004 3006 3007 3009
2866 2866 2866 2865 2865 2865 2865 2864 2864 2863 2863 2862 2862 2862 2862 2863 2863 2864 2864 2865 2866 2867 2868 2870 2871 2872 2873 2875 2876 2878 2879 2881 2882 2884 2886 2887 2889 2891 2893 2895 2897 2900 2903 2906 2908 2911 2914 2917 2919 2921 2924 2927 2929 2932 2934 2937 2939 2942 2944 2947 2949 2952 2954 2957 2960 2962 2965 2967 2969 2972 2974 2976 2978 2980 2982 2986 2989 2993 2996 2997 2999 3001 3002 3004 3006 3007
2866 2866 2866 2866 2866 2865 2865 2864 2864 2863 2863 2862 2862 2862 2862 2862 2863 2863 2864 2865 2866 2867 2868 2869 2870 2871 2873 2874 2876 2877 2879 2880 2882 2883 2885 2886 2888 2890 2892 2894 2896 2899 2902 2905 2908 2911 2913 2916 2918 2921 2924 2926 2929 2931 2933 2935 2938 2940 2943 2945 2947 2950 2953 2956 2959 2962 2964 2966 2969 2971 2974 2976 2977 2979 2981 2984 2987 2991 2994 2996 2998 3000 3001 3003 3004 3006
2867 2867 2866 2866 2866 2865 2865 2864 2864 2863 2863 2862 2862 2862 2862 2862 2863 2863 2864 2865 2866 2866 2867 2869 2870 2871 2873 2874 2876 2877 2878 2880 2881 2883 2884 2886 2887 2889 2891 2893 2896 2898 2901 2904 2907 2910 2913 2916 2919 2921 2924 2926 2928 2930 2932 2934 2936 2939 2941 2943 2946 2949 2951 2954 2957 2959 2962 2965 2968 2971 2973 2975 2976 2977 2979 2982 2986 2990 2993 2995 2996 2998 3000 3001 3003 3005
2867 2867 2867 2866 2866 2866 2865 2864 2864 2863 2863 2862 2862 2862 2862 2862 2862 2863 2864 2864 2865 2866 2867 2868 2870 2871 2872 2874 2875 2876 2878 2879 2881 2882 2884 2886 2887 2889 2891 2893 2895 2898 2901 2903 2906 2909 2912 2915 2918 2921 2923 2925 2927 2929 2930 2932 2935 2937 2939 2942 2945 2947 2950 2952 2955 2958 2961 2964 2967 2970 2972 2974 2975 2976 2979 2982 2986 2989 2991 2993 2995 2996 2998 3000 3002 3004
2868 2868 2867 2867 2866 2866 2865 2865 2864 2864 2863 2862 2862 2862 2862 2862 2863 2863 2864 2864 2865 2866 2867 2868 2869 2871 2872 2873 2875 2876 2877 2879 2881 2882 2884 2886 2887 2889 2891 2893 2895 2897 2900 2902 2905 2908 2911 2914 2917 2919 2921 2923 2926 2928 2929 2931 2933 2935 2938 2941 2943 2946 2949 2951 2954 2957 2960 2963 2966 2969 2971 2973 2975 2977 2979 2982 2986 2988 2990 2992 2993 2995 2997 2999 3001 3003
2869 2868 2868 2867 2867 2866 2866 2865 2865 2864 2863 2863 2862 2862 2862 2862 2863 2863 2864 2864 2865 2866 2866 2868 2869 2870 2871 2873 2874 2876 2877 2878 2880 2882 2883 2885 2887 2889 2891 2893 2895 2897 2899 2901 2904 2907 2910 2913 2916 2918 2920 2922 2924 2926 2928 2930 2932 2934 2937 2940 2942 2945 2947 2950 2953 2956 2959 2961 2964 2967 2970 2972 2975 2977 2980 2982 2985 2987 2989 2990 2992 2994 2996 2998 3000 3001
2869 2869 2868 2868 2867 2867 2866 2866 2865 2864 2864 2863 2863 2862 2862 2863 2863 2863 2864 2864 2865 2866 2866 2867 2868 2870 2871 2872 2874 2875 2876 2878 2879 2881 2883 2885 2886 2888 2891 2892 2895 2896 2899 2901 2903 2906 2908 2911 2914 2916 2918 2920 2922 2924 2926 2928 2930 2933 2936 2938 2941 2944 2946 2949 2952 2955 2957 2960 2963 2966 2968 2971 2974 2977 2979 2981 2984 2986 2988 2989 2991 2993 2995 2997 2999 3001